• Join FlightAware (Why Join?)
  • Login
  • US Flag 
09:38PM EST


 

Airport Tracker/Info


-or-


 

Live Flight TrackerFlight Track Log ✈ FIV428 ✈ 23-May-2013 ✈ KMEM - KHPN

Flight Track Log - Related Links

Times and Time Zones

All times are in EDT time to prevent confusion due to time zone crossing. See the FIV428 flight status page for this flight to view local times or setup timezone preferences in your user account.

Time Position Orientation Groundspeed Altitude Reporting Facility
EDT Latitude Longitude Course Direction KTS MPH feet Rate Location/Type
07:18PM 35.0667 -89.9833 360° North 136 157 1,300  Level KMEM
07:19PM 35.0833 -89.9833 360° North 188 216 3,800 3,480 Climbing KMEM
07:20PM 35.1333 -89.9667 15° North 204 235 7,000 2,640 Climbing KMEM
07:22PM 35.2256 -89.9122 26° Northeast 243 280 10,500 2,280 Climbing Memphis Center
07:23PM 35.2919 -89.8483 38° Northeast 286 329 13,200 2,700 Climbing Memphis Center
07:24PM 35.3586 -89.7867 37° Northeast 298 343 15,900 2,280 Climbing Memphis Center
07:25PM 35.4269 -89.7250 36° Northeast 298 343 17,800 1,920 Climbing Memphis Center
07:26PM 35.4978 -89.6608 36° Northeast 298 343 19,800 1,980 Climbing Memphis Center
07:27PM 35.5744 -89.5914 36° Northeast 303 349 21,800 1,980 Climbing Memphis Center
07:29PM 35.7133 -89.4647 37° Northeast 313 360 25,800 1,980 Climbing Memphis Center
07:30PM 35.7881 -89.4100 31° Northeast 307 353 27,800 1,980 Climbing Memphis Center
07:31PM 35.8625 -89.3531 32° Northeast 302 348 29,800 1,560 Climbing Memphis Center
07:32PM 35.9372 -89.2981 31° Northeast 302 348 31,000 840 Climbing Memphis Center
07:33PM 36.0242 -89.2328 31° Northeast 320 368 31,500 1,440 Climbing Memphis Center
07:34PM 36.0986 -89.1753 32° Northeast 349 402 33,900 1,560 Climbing Memphis Center
07:35PM 36.1836 -89.1097 32° Northeast 349 402 34,700 540 Climbing Memphis Center
07:36PM 36.2744 -89.0414 31° Northeast 357 411 35,000 120 Climbing Memphis Center
07:37PM 36.3717 -88.9703 30° Northeast 377 434 35,000  Level Memphis Center
07:38PM 36.4711 -88.8964 31° Northeast 397 457 35,000  Level Memphis Center
07:39PM 36.5681 -88.8250 31° Northeast 402 463 35,000  Level Memphis Center
07:40PM 36.6631 -88.7506 32° Northeast 402 463 35,000  Level Memphis Center
07:41PM 36.7514 -88.6608 39° Northeast 402 463 35,000  Level Memphis Center
07:42PM 36.8417 -88.5656 40° Northeast 407 468 35,000  Level Memphis Center
07:43PM 36.9281 -88.4753 40° Northeast 412 474 35,000  Level Memphis Center
07:44PM 37.0142 -88.3825 41° Northeast 412 474 35,000 360 Level Memphis Center
07:45PM 37.1022 -88.2892 40° Northeast 412 474 35,800 900 Climbing Memphis Center
07:46PM 37.1881 -88.1958 41° Northeast 412 474 36,800 900 Climbing Memphis Center
07:48PM 37.3578 -88.0061 42° Northeast 404 465 38,600 720 Climbing Indianapolis Center
07:49PM 37.4433 -87.9122 41° Northeast 404 465 39,100 480 Climbing Indianapolis Center
07:50PM 37.5297 -87.8175 41° Northeast 406 467 39,600 480 Climbing Indianapolis Center
07:51PM 37.6169 -87.7231 41° Northeast 408 470 40,100 480 Climbing Indianapolis Center
07:52PM 37.7025 -87.6283 41° Northeast 405 466 40,600 420 Climbing Indianapolis Center
07:53PM 37.7917 -87.5306 41° Northeast 405 466 41,000 180 Climbing Indianapolis Center
07:54PM 37.8778 -87.4342 41° Northeast 411 473 41,000  Level Indianapolis Center
07:55PM 37.9664 -87.3369 41° Northeast 420 483 41,000  Level Indianapolis Center
07:56PM 38.0553 -87.2372 41° Northeast 424 488 41,000  Level Indianapolis Center
07:57PM 38.1278 -87.1208 52° Northeast 423 487 41,000  Level Indianapolis Center
07:58PM 38.2039 -86.9908 53° Northeast 424 488 41,000  Level Indianapolis Center
07:59PM 38.2783 -86.8586 54° Northeast 424 488 41,000  Level Indianapolis Center
08:00PM 38.3475 -86.7369 54° Northeast 427 491 41,000  Level Indianapolis Center
08:01PM 38.4169 -86.6153 54° Northeast 425 489 41,000  Level Indianapolis Center
08:02PM 38.4861 -86.4933 54° Northeast 425 489 41,000  Level Indianapolis Center
08:03PM 38.5686 -86.3447 55° Northeast 427 491 41,000  Level Indianapolis Center
08:04PM 38.6389 -86.2225 54° Northeast 426 490 41,000  Level Indianapolis Center
08:05PM 38.7081 -86.0986 54° Northeast 427 491 41,000  Level Indianapolis Center
08:06PM 38.7772 -85.9739 55° Northeast 426 490 41,000  Level Indianapolis Center
08:07PM 38.8508 -85.8400 55° Northeast 429 494 41,000  Level Indianapolis Center
08:08PM 38.9183 -85.7161 55° Northeast 426 490 41,000  Level Indianapolis Center
08:09PM 38.9858 -85.5944 54° Northeast 423 487 41,000  Level Indianapolis Center
08:10PM 39.0544 -85.4703 55° Northeast 426 490 41,000  Level Indianapolis Center
08:11PM 39.1214 -85.3458 55° Northeast 427 491 41,000  Level Indianapolis Center
08:12PM 39.1906 -85.2192 55° Northeast 432 497 41,000  Level Indianapolis Center
08:13PM 39.2719 -85.0675 55° Northeast 432 497 41,000  Level Indianapolis Center
08:14PM 39.3394 -84.9411 55° Northeast 431 496 41,000  Level Indianapolis Center
08:15PM 39.4067 -84.8167 55° Northeast 430 495 41,000  Level Indianapolis Center
08:16PM 39.4753 -84.6886 55° Northeast 430 495 41,000  Level Indianapolis Center
08:17PM 39.5433 -84.5606 55° Northeast 429 494 41,000  Level Indianapolis Center
08:18PM 39.6108 -84.4317 56° Northeast 429 494 41,000  Level Indianapolis Center
08:20PM 39.6908 -84.2811 55° Northeast 431 496 41,000  Level Indianapolis Center
08:21PM 39.7578 -84.1528 56° Northeast 427 491 41,000  Level Indianapolis Center
08:22PM 39.8267 -84.0225 55° Northeast 430 495 41,000  Level Indianapolis Center
08:23PM 39.8942 -83.8928 56° Northeast 429 494 41,000  Level Indianapolis Center
08:24PM 39.9625 -83.7603 56° Northeast 432 497 41,000 -60 Level Indianapolis Center
08:25PM 40.0314 -83.6283 56° Northeast 430 495 40,900  Descending Indianapolis Center
08:26PM 40.0992 -83.4947 56° Northeast 431 496 41,000  Climbing Indianapolis Center
08:27PM 40.1669 -83.3614 56° Northeast 432 497 41,000  Level Indianapolis Center
08:28PM 40.2347 -83.2275 56° Northeast 435 501 41,000  Level Indianapolis Center
08:29PM 40.3031 -83.0950 56° Northeast 434 499 41,000  Level Indianapolis Center
08:30PM 40.3700 -82.9603 57° Northeast 435 501 41,000  Level Indianapolis Center
08:31PM 40.4367 -82.8267 57° Northeast 435 501 41,000  Level Indianapolis Center
08:32PM 40.5067 -82.6875 56° Northeast 436 502 41,000  Level Indianapolis Center
08:33PM 40.5742 -82.5525 57° Northeast 437 503 41,000  Level Indianapolis Center
08:34PM 40.6419 -82.4167 57° Northeast 441 507 41,000  Level Indianapolis Center
08:35PM 40.7033 -82.2758 60° Northeast 442 509 41,000  Level Indianapolis Center
08:36PM 40.7539 -82.1275 66° East 440 506 41,000  Level Indianapolis Center
08:37PM 40.8119 -81.9539 66° East 442 509 41,000  Level Indianapolis Center
08:38PM 40.8617 -81.8061 66° East 440 506 41,000  Level Indianapolis Center
08:39PM 40.9119 -81.6569 66° East 442 509 41,000  Level Indianapolis Center
08:40PM 40.9619 -81.5067 66° East 445 512 41,000  Level Indianapolis Center
08:41PM 41.0117 -81.3575 66° East 444 511 41,000  Level Indianapolis Center
08:42PM 41.0608 -81.2075 66° East 444 511 41,000  Level Indianapolis Center
08:43PM 41.1189 -81.0406 65° Northeast 437 503 41,000  Level Cleveland Center
08:44PM 41.1611 -80.9031 68° East 437 503 41,000  Level Cleveland Center
08:45PM 41.2094 -80.7569 66° East 437 503 41,000  Level Cleveland Center
08:46PM 41.2575 -80.6053 67° East 437 503 41,000  Level Cleveland Center
08:47PM 41.2928 -80.4506 73° East 437 503 41,000  Level Cleveland Center
08:48PM 41.3258 -80.2817 75° East 430 495 41,000  Level Cleveland Center
08:49PM 41.3544 -80.1239 76° East 430 495 41,000  Level Cleveland Center
08:50PM 41.3789 -79.9853 77° East 428 493 41,000  Level Cleveland Center
08:51PM 41.4092 -79.8217 76° East 433 498 41,000  Level Cleveland Center
08:52PM 41.4394 -79.6636 76° East 433 498 41,000  Level Cleveland Center
08:53PM 41.4922 -79.5103 65° Northeast 438 504 41,000  Level Cleveland Center
08:54PM 41.5469 -79.3597 64° Northeast 438 504 41,000  Level Cleveland Center
08:55PM 41.5975 -79.2058 66° East 438 504 41,000  Level Cleveland Center
08:56PM 41.6497 -79.0519 66° East 443 510 41,000  Level Cleveland Center
08:57PM 41.7017 -78.8978 66° East 443 510 41,000  Level Cleveland Center
08:58PM 41.7556 -78.7433 65° Northeast 449 517 41,000  Level Cleveland Center
08:59PM 41.8092 -78.5886 65° Northeast 454 522 41,000  Level Cleveland Center
09:00PM 41.8606 -78.4308 66° East 454 522 41,000  Level Cleveland Center
09:01PM 41.9139 -78.2700 66° East 459 528 41,000  Level Cleveland Center
09:02PM 41.9647 -78.1144 66° East 464 534 41,000  Level Cleveland Center
09:03PM 42.0197 -77.9558 65° Northeast 464 534 41,000 -120 Level Cleveland Center
09:04PM 42.0828 -77.7994 61° Northeast 464 534 40,800 -360 Descending Cleveland Center
09:05PM 42.1561 -77.6561 55° Northeast 464 534 40,300 -600 Descending Cleveland Center
09:06PM 42.2297 -77.5125 55° Northeast 464 534 39,700 -720 Descending Cleveland Center
09:07PM 42.3050 -77.3711 54° Northeast 464 534 38,900 -900 Descending Cleveland Center
09:08PM 42.3881 -77.2122 55° Northeast 459 528 37,900 -900 Descending Cleveland Center
09:09PM 42.4586 -77.0594 58° Northeast 470 541 37,100 -720 Descending Cleveland Center
09:11PM 42.4886 -76.7767 82° East 447 514 36,100 -660 Descending Boston Center
09:12PM 42.4928 -76.6081 88° East 447 514 35,400 -660 Descending Boston Center
09:13PM 42.4925 -76.4417 90° East 442 509 34,800 -600 Descending Boston Center
09:14PM 42.4603 -76.2847 106° East 430 495 34,200 -600 Descending Boston Center
09:15PM 42.4317 -76.1481 106° East 425 489 33,600 -600 Descending Boston Center
09:16PM 42.3989 -75.9942 106° East 420 483 33,000 -600 Descending Boston Center
09:17PM 42.3681 -75.8492 106° East 420 483 32,500 -600 Descending Boston Center
09:18PM 42.3350 -75.6956 106° East 426 490 31,900 -600 Descending Boston Center
09:19PM 42.3017 -75.5394 106° East 426 490 31,300 -1,020 Descending Boston Center
09:20PM 42.2706 -75.3833 105° East 426 490 29,900 -1,620 Descending Boston Center
09:21PM 42.2469 -75.2392 102° East 414 476 28,100 -2,100 Descending Boston Center
09:22PM 42.2361 -75.0931 96° East 400 460 25,700 -2,400 Descending Boston Center
09:23PM 42.2289 -74.9497 94° East 388 447 23,300 -2,340 Descending Boston Center
09:24PM 42.2233 -74.8175 93° East 369 425 21,100 -2,160 Descending Boston Center
09:25PM 42.2092 -74.6967 99° East 344 396 19,000 -1,080 Descending Boston Center
09:26PM 42.1397 -74.6239 142° Southeast 297 342 19,000 -60 Level Boston Center
09:27PM 42.0764 -74.5547 141° Southeast 289 333 18,900  Descending Boston Center
09:28PM 42.0028 -74.4794 143° Southeast 304 350 19,000  Climbing Boston Center
09:29PM 41.9414 -74.4161 142° Southeast 309 356 18,900 -1,500 Descending Boston Center
09:30PM 41.8697 -74.3386 141° Southeast 309 356 16,000 -2,700 Descending Boston Center
09:31PM 41.8122 -74.2783 142° Southeast 303 349 13,600 -2,880 Descending Boston Center
09:32PM 41.7406 -74.2094 144° Southeast 292 336 10,300 -3,060 Descending Boston Center
09:33PM 41.6808 -74.1661 152° Southeast 275 316 7,500 -1,680 Descending Boston Center
09:34PM 41.6064 -74.1114 151° Southeast 267 307 7,000 -300 Descending Boston Center
09:35PM 41.5383 -74.0625 152° Southeast 267 307 7,000 -480 Level Boston Center
09:36PM 41.4500 -74.0000 152° Southeast 243 280 6,000 -480 Descending New York TRACON
09:37PM 41.4000 -73.9667 153° Southeast 222 255 6,000 -600 Level New York TRACON
09:38PM 41.3500 -73.9333 153° Southeast 216 249 4,900 -1,320 Descending New York TRACON
09:39PM 41.3000 -73.9000 153° Southeast 197 227 3,400 -960 Descending New York TRACON
09:40PM 41.2500 -73.8500 143° Southeast 197 227 3,000 -720 Descending New York TRACON
09:41PM 41.2000 -73.8167 153° Southeast 197 227 2,000 -540 Descending New York TRACON
09:42PM 41.1667 -73.7833 143° Southeast 179 206 2,000 -240 Level New York TRACON
09:43PM 41.1333 -73.7500 143° Southeast 141 162 1,600 -480 Descending New York TRACON
09:44PM 41.1000 -73.7333 159° South 100 115 1,100 -540 Descending New York TRACON